Time,TemperatureF,DewpointF,PressureIn,WindDirection,WindDirectionDegrees,WindSpeedMPH,WindSpeedGustMPH,Humidity,HourlyPrecipIn,Conditions,Clouds,dailyrainin,SoftwareType,DateUTC
2013-02-01 00:00:00,51.4,37.6,30.18,NNE,32,3.0,5.0,59,0.00,,,0.00,VWS V14.00,2013-02-01 05:00:00,
2013-02-01 00:02:00,51.3,37.5,30.18,North,9,1.0,5.0,59,0.00,,,0.00,VWS V14.00,2013-02-01 05:02:00,
2013-02-01 00:03:00,51.3,37.5,30.18,North,10,3.0,5.0,59,0.00,,,0.00,VWS V14.00,2013-02-01 05:03:00,
2013-02-01 00:08:00,51.2,37.8,30.18,NNE,13,3.0,8.0,60,0.00,,,0.00,VWS V14.00,2013-02-01 05:08:00,
2013-02-01 00:13:00,51.0,38.0,30.17,NNW,346,0.0,8.0,61,0.00,,,0.00,VWS V14.00,2013-02-01 05:13:00,
2013-02-01 00:18:00,50.9,38.0,30.18,NNW,348,5.0,10.0,61,0.00,,,0.00,VWS V14.00,2013-02-01 05:18:00,
2013-02-01 00:23:00,50.7,37.8,30.18,NNW,345,2.0,10.0,61,0.00,,,0.00,VWS V14.00,2013-02-01 05:23:00,
2013-02-01 00:28:00,50.5,38.0,30.18,NNE,26,4.0,10.0,62,0.00,,,0.00,VWS V14.00,2013-02-01 05:28:00,
2013-02-01 00:33:00,50.4,38.3,30.18,North,350,4.0,8.0,63,0.00,,,0.00,VWS V14.00,2013-02-01 05:33:00,
2013-02-01 00:38:00,50.3,38.2,30.18,NNE,15,1.0,8.0,63,0.00,,,0.00,VWS V14.00,2013-02-01 05:38:00,
2013-02-01 00:43:00,50.2,38.5,30.18,North,11,4.0,8.0,64,0.00,,,0.00,VWS V14.00,2013-02-01 05:43:00,
2013-02-01 00:48:00,50.2,38.5,30.18,North,355,5.0,8.0,64,0.00,,,0.00,VWS V14.00,2013-02-01 05:48:00,
2013-02-01 00:53:00,50.1,38.8,30.18,North,355,4.0,8.0,65,0.00,,,0.00,VWS V14.00,2013-02-01 05:53:00,
2013-02-01 00:58:00,50.1,38.8,30.18,NNE,25,2.0,8.0,65,0.00,,,0.00,VWS V14.00,2013-02-01 05:58:00,
2013-02-01 01:03:00,50.1,38.8,30.18,NNE,26,5.0,10.0,65,0.00,,,0.00,VWS V14.00,2013-02-01 06:03:00,
2013-02-01 01:08:00,50.0,38.7,30.18,North,5,2.0,10.0,65,0.00,,,0.00,VWS V14.00,2013-02-01 06:08:00,
2013-02-01 01:13:00,50.0,38.7,30.18,NNE,17,5.0,10.0,65,0.00,,,0.00,VWS V14.00,2013-02-01 06:13:00,
2013-02-01 01:18:00,50.0,38.7,30.17,ENE,61,4.0,5.0,65,0.00,,,0.00,VWS V14.00,2013-02-01 06:18:00,
2013-02-01 01:23:00,49.9,39.0,30.18,North,5,0.0,6.0,66,0.00,,,0.00,VWS V14.00,2013-02-01 06:23:00,
2013-02-01 01:28:00,49.9,39.4,30.18,North,5,4.0,6.0,67,0.00,,,0.00,VWS V14.00,2013-02-01 06:28:00,
2013-02-01 01:33:00,49.8,38.9,30.18,NNE,19,4.0,5.0,66,0.00,,,0.00,VWS V14.00,2013-02-01 06:33:00,
2013-02-01 01:38:00,49.8,39.3,30.18,NNE,26,2.0,6.0,67,0.00,,,0.00,VWS V14.00,2013-02-01 06:38:00,
2013-02-01 01:43:00,49.6,39.1,30.18,NE,34,0.0,6.0,67,0.00,,,0.00,VWS V14.00,2013-02-01 06:43:00,
2013-02-01 01:48:00,49.5,39.4,30.18,NNE,14,1.0,4.0,68,0.00,,,0.00,VWS V14.00,2013-02-01 06:48:00,
2013-02-01 01:53:00,49.4,39.3,30.18,North,5,0.0,4.0,68,0.00,,,0.00,VWS V14.00,2013-02-01 06:53:00,
2013-02-01 01:58:00,49.3,39.2,30.18,NNE,25,1.0,8.0,68,0.00,,,0.00,VWS V14.00,2013-02-01 06:58:00,
2013-02-01 02:03:00,49.2,39.5,30.18,NNE,25,0.0,3.0,69,0.00,,,0.00,VWS V14.00,2013-02-01 07:03:00,
2013-02-01 02:08:00,49.2,39.5,30.18,NNE,25,0.0,5.0,69,0.00,,,0.00,VWS V14.00,2013-02-01 07:08:00,
2013-02-01 02:13:00,49.1,39.4,30.18,NNE,25,0.0,5.0,69,0.00,,,0.00,VWS V14.00,2013-02-01 07:13:00,
2013-02-01 02:18:00,49.1,39.8,30.18,NNE,19,0.0,2.0,70,0.00,,,0.00,VWS V14.00,2013-02-01 07:18:00,
2013-02-01 02:23:00,49.1,39.8,30.18,NNE,19,0.0,2.0,70,0.00,,,0.00,VWS V14.00,2013-02-01 07:23:00,
2013-02-01 02:28:00,49.1,39.8,30.18,NNE,19,0.0,2.0,70,0.00,,,0.00,VWS V14.00,2013-02-01 07:28:00,
2013-02-01 02:33:00,49.1,39.8,30.18,NNE,19,0.0,0.0,70,0.00,,,0.00,VWS V14.00,2013-02-01 07:33:00,
2013-02-01 02:38:00,49.1,39.8,30.18,NNE,19,0.0,0.0,70,0.00,,,0.00,VWS V14.00,2013-02-01 07:38:00,
2013-02-01 02:43:00,49.1,39.8,30.18,NNE,19,0.0,0.0,70,0.00,,,0.00,VWS V14.00,2013-02-01 07:43:00,
2013-02-01 02:48:00,49.1,39.8,30.18,NNE,19,0.0,0.0,70,0.00,,,0.00,VWS V14.00,2013-02-01 07:48:00,
2013-02-01 02:53:00,49.1,39.8,30.18,NNE,19,0.0,0.0,70,0.00,,,0.00,VWS V14.00,2013-02-01 07:53:00,
2013-02-01 02:58:00,49.1,39.8,30.18,NNE,19,0.0,0.0,70,0.00,,,0.00,VWS V14.00,2013-02-01 07:58:00,
2013-02-01 03:03:00,49.1,39.8,30.18,NNE,19,0.0,0.0,70,0.00,,,0.00,VWS V14.00,2013-02-01 08:03:00,
2013-02-01 03:08:00,49.1,39.8,30.17,NNE,19,0.0,0.0,70,0.00,,,0.00,VWS V14.00,2013-02-01 08:08:00,
2013-02-01 03:13:00,49.1,39.8,30.17,NNE,19,0.0,0.0,70,0.00,,,0.00,VWS V14.00,2013-02-01 08:13:00,
2013-02-01 03:18:00,49.1,39.8,30.17,NNE,19,0.0,0.0,70,0.00,,,0.00,VWS V14.00,2013-02-01 08:18:00,
2013-02-01 03:23:00,49.1,39.8,30.17,NNE,19,0.0,0.0,70,0.00,,,0.00,VWS V14.00,2013-02-01 08:23:00,
2013-02-01 03:28:00,49.1,39.8,30.17,NNE,19,0.0,0.0,70,0.00,,,0.00,VWS V14.00,2013-02-01 08:28:00,
2013-02-01 03:33:00,49.1,39.8,30.17,NNE,19,0.0,0.0,70,0.00,,,0.00,VWS V14.00,2013-02-01 08:33:00,
2013-02-01 03:38:00,49.1,39.8,30.17,NNE,19,0.0,0.0,70,0.00,,,0.00,VWS V14.00,2013-02-01 08:38:00,
2013-02-01 03:43:00,49.1,39.8,30.17,NNE,19,0.0,0.0,70,0.00,,,0.00,VWS V14.00,2013-02-01 08:43:00,
2013-02-01 03:48:00,49.1,39.8,30.16,NNE,19,0.0,0.0,70,0.00,,,0.00,VWS V14.00,2013-02-01 08:48:00,
2013-02-01 03:53:00,49.1,39.8,30.17,NNE,19,0.0,0.0,70,0.00,,,0.00,VWS V14.00,2013-02-01 08:53:00,
2013-02-01 03:58:00,49.1,39.8,30.17,NNE,19,0.0,0.0,70,0.00,,,0.00,VWS V14.00,2013-02-01 08:58:00,
2013-02-01 04:03:00,49.1,39.8,30.18,NNE,19,0.0,0.0,70,0.00,,,0.00,VWS V14.00,2013-02-01 09:03:00,
2013-02-01 04:08:00,49.1,39.8,30.17,NNE,19,0.0,0.0,70,0.00,,,0.00,VWS V14.00,2013-02-01 09:08:00,
2013-02-01 04:13:00,49.1,39.8,30.18,NNE,19,0.0,0.0,70,0.00,,,0.00,VWS V14.00,2013-02-01 09:13:00,
2013-02-01 04:18:00,49.1,39.8,30.18,NNE,19,0.0,0.0,70,0.00,,,0.00,VWS V14.00,2013-02-01 09:18:00,
2013-02-01 04:23:00,49.1,39.8,30.18,NNE,19,0.0,0.0,70,0.00,,,0.00,VWS V14.00,2013-02-01 09:23:00,
2013-02-01 04:28:00,49.1,39.8,30.17,NNE,19,0.0,0.0,70,0.00,,,0.00,VWS V14.00,2013-02-01 09:28:00,
2013-02-01 04:33:00,49.1,39.8,30.18,NNE,19,0.0,0.0,70,0.00,,,0.00,VWS V14.00,2013-02-01 09:33:00,
2013-02-01 04:38:00,49.1,39.8,30.18,NNE,19,0.0,0.0,70,0.00,,,0.00,VWS V14.00,2013-02-01 09:38:00,
2013-02-01 04:43:00,49.1,39.8,30.18,NNE,19,0.0,0.0,70,0.00,,,0.00,VWS V14.00,2013-02-01 09:43:00,
2013-02-01 04:48:00,49.1,39.8,30.19,NNE,19,0.0,0.0,70,0.00,,,0.00,VWS V14.00,2013-02-01 09:48:00,
2013-02-01 04:53:00,49.1,39.8,30.19,NNE,19,0.0,0.0,70,0.00,,,0.00,VWS V14.00,2013-02-01 09:53:00,
2013-02-01 04:58:00,49.1,39.8,30.19,NNE,19,0.0,0.0,70,0.00,,,0.00,VWS V14.00,2013-02-01 09:58:00,
2013-02-01 05:03:00,49.1,39.8,30.19,NNE,19,0.0,0.0,70,0.00,,,0.00,VWS V14.00,2013-02-01 10:03:00,
2013-02-01 05:08:00,49.1,39.8,30.19,NNE,19,0.0,0.0,70,0.00,,,0.00,VWS V14.00,2013-02-01 10:08:00,
2013-02-01 05:13:00,49.1,39.8,30.19,NNE,19,0.0,0.0,70,0.00,,,0.00,VWS V14.00,2013-02-01 10:13:00,
2013-02-01 05:18:00,49.1,39.8,30.19,NNE,19,0.0,0.0,70,0.00,,,0.00,VWS V14.00,2013-02-01 10:18:00,
2013-02-01 05:23:00,49.1,39.8,30.19,NNE,19,0.0,0.0,70,0.00,,,0.00,VWS V14.00,2013-02-01 10:23:00,
2013-02-01 05:28:00,49.1,39.8,30.19,NNE,19,0.0,0.0,70,0.00,,,0.00,VWS V14.00,2013-02-01 10:28:00,
2013-02-01 05:33:00,49.1,39.8,30.19,NNE,19,0.0,0.0,70,0.00,,,0.00,VWS V14.00,2013-02-01 10:33:00,
2013-02-01 05:38:00,49.1,39.8,30.19,NNE,19,0.0,0.0,70,0.00,,,0.00,VWS V14.00,2013-02-01 10:38:00,
2013-02-01 05:43:00,49.1,39.8,30.20,NNE,19,0.0,0.0,70,0.00,,,0.00,VWS V14.00,2013-02-01 10:43:00,
2013-02-01 05:48:00,49.1,39.8,30.20,NNE,19,0.0,0.0,70,0.00,,,0.00,VWS V14.00,2013-02-01 10:48:00,
2013-02-01 05:53:00,49.1,39.8,30.20,NNE,19,0.0,0.0,70,0.00,,,0.00,VWS V14.00,2013-02-01 10:53:00,
2013-02-01 05:58:00,49.1,39.8,30.20,NNE,19,0.0,0.0,70,0.00,,,0.00,VWS V14.00,2013-02-01 10:58:00,
2013-02-01 06:03:00,49.1,39.8,30.20,NNE,19,0.0,0.0,70,0.00,,,0.00,VWS V14.00,2013-02-01 11:03:00,
2013-02-01 06:08:00,49.1,39.8,30.20,NNE,19,0.0,0.0,70,0.00,,,0.00,VWS V14.00,2013-02-01 11:08:00,
2013-02-01 06:13:00,49.1,39.8,30.21,NNE,19,0.0,0.0,70,0.00,,,0.00,VWS V14.00,2013-02-01 11:13:00,
2013-02-01 06:18:00,49.1,39.8,30.21,NNE,19,0.0,0.0,70,0.00,,,0.00,VWS V14.00,2013-02-01 11:18:00,
2013-02-01 06:23:00,49.1,39.8,30.21,NNE,19,0.0,0.0,70,0.00,,,0.00,VWS V14.00,2013-02-01 11:23:00,
2013-02-01 06:28:00,49.1,39.8,30.21,NNE,19,0.0,0.0,70,0.00,,,0.00,VWS V14.00,2013-02-01 11:28:00,
2013-02-01 06:33:00,49.1,39.8,30.21,NNE,19,0.0,0.0,70,0.00,,,0.00,VWS V14.00,2013-02-01 11:33:00,
2013-02-01 06:38:00,49.1,39.8,30.21,NNE,19,0.0,0.0,70,0.00,,,0.00,VWS V14.00,2013-02-01 11:38:00,
2013-02-01 06:43:00,49.1,39.8,30.22,NNE,19,0.0,0.0,70,0.00,,,0.00,VWS V14.00,2013-02-01 11:43:00,
2013-02-01 06:48:00,49.1,39.8,30.22,NNE,19,0.0,0.0,70,0.00,,,0.00,VWS V14.00,2013-02-01 11:48:00,
2013-02-01 06:53:00,49.1,39.8,30.22,NNE,19,0.0,0.0,70,0.00,,,0.00,VWS V14.00,2013-02-01 11:53:00,
2013-02-01 06:58:00,49.1,39.8,30.22,NNE,19,0.0,0.0,70,0.00,,,0.00,VWS V14.00,2013-02-01 11:58:00,
2013-02-01 07:03:00,49.1,39.8,30.23,NNE,19,0.0,0.0,70,0.00,,,0.00,VWS V14.00,2013-02-01 12:03:00,
2013-02-01 07:08:00,49.1,39.8,30.22,NNE,19,0.0,0.0,70,0.00,,,0.00,VWS V14.00,2013-02-01 12:08:00,
2013-02-01 07:13:00,49.1,39.8,30.23,NNE,19,0.0,0.0,70,0.00,,,0.00,VWS V14.00,2013-02-01 12:13:00,
2013-02-01 07:18:00,49.1,39.8,30.23,NNE,19,0.0,0.0,70,0.00,,,0.00,VWS V14.00,2013-02-01 12:18:00,
2013-02-01 07:23:00,49.1,39.8,30.23,NNE,19,0.0,0.0,70,0.00,,,0.00,VWS V14.00,2013-02-01 12:23:00,
2013-02-01 07:28:00,49.1,39.8,30.23,NNE,19,0.0,0.0,70,0.00,,,0.00,VWS V14.00,2013-02-01 12:28:00,
2013-02-01 07:32:00,49.1,39.8,30.23,NNE,19,0.0,0.0,70,0.00,,,0.00,VWS V14.00,2013-02-01 12:32:00,
2013-02-01 07:37:00,49.1,39.8,30.24,NNE,19,0.0,0.0,70,0.00,,,0.00,VWS V14.00,2013-02-01 12:37:00,
2013-02-01 07:42:00,49.1,39.8,30.23,NNE,19,0.0,0.0,70,0.00,,,0.00,VWS V14.00,2013-02-01 12:42:00,
2013-02-01 07:47:00,49.1,39.8,30.24,NNE,19,0.0,0.0,70,0.00,,,0.00,VWS V14.00,2013-02-01 12:47:00,
2013-02-01 07:52:00,49.1,39.8,30.24,NNE,19,0.0,0.0,70,0.00,,,0.00,VWS V14.00,2013-02-01 12:52:00,
2013-02-01 07:57:00,49.1,39.8,30.25,NNE,19,0.0,0.0,70,0.00,,,0.00,VWS V14.00,2013-02-01 12:57:00,
2013-02-01 08:02:00,49.1,39.8,30.24,NNE,19,0.0,0.0,70,0.00,,,0.00,VWS V14.00,2013-02-01 13:02:00,
2013-02-01 08:07:00,49.1,39.8,30.24,NNE,19,0.0,0.0,70,0.00,,,0.00,VWS V14.00,2013-02-01 13:07:00,
2013-02-01 08:12:00,49.1,39.8,30.25,NNE,19,0.0,0.0,70,0.00,,,0.00,VWS V14.00,2013-02-01 13:12:00,
2013-02-01 08:17:00,49.1,39.8,30.24,NNE,19,0.0,0.0,70,0.00,,,0.00,VWS V14.00,2013-02-01 13:17:00,
2013-02-01 08:22:00,49.1,39.8,30.25,NNE,19,0.0,0.0,70,0.00,,,0.00,VWS V14.00,2013-02-01 13:22:00,
2013-02-01 08:27:00,49.1,39.8,30.25,NNE,19,0.0,0.0,70,0.00,,,0.00,VWS V14.00,2013-02-01 13:27:00,
2013-02-01 08:32:00,49.1,39.8,30.25,NNE,19,0.0,0.0,70,0.00,,,0.00,VWS V14.00,2013-02-01 13:32:00,
2013-02-01 08:37:00,49.1,39.8,30.25,NNE,19,0.0,0.0,70,0.00,,,0.00,VWS V14.00,2013-02-01 13:37:00,
2013-02-01 08:42:00,49.1,39.8,30.25,NNE,19,0.0,0.0,70,0.00,,,0.00,VWS V14.00,2013-02-01 13:42:00,
2013-02-01 08:47:00,49.1,39.8,30.25,NNE,19,0.0,0.0,70,0.00,,,0.00,VWS V14.00,2013-02-01 13:47:00,
2013-02-01 08:52:00,49.1,39.8,30.26,NNE,19,0.0,0.0,70,0.00,,,0.00,VWS V14.00,2013-02-01 13:52:00,
2013-02-01 08:57:00,49.1,39.8,30.26,NNE,19,0.0,0.0,70,0.00,,,0.00,VWS V14.00,2013-02-01 13:57:00,
2013-02-01 09:02:00,49.1,39.8,30.26,NNE,19,0.0,0.0,70,0.00,,,0.00,VWS V14.00,2013-02-01 14:02:00,
2013-02-01 09:07:00,49.1,39.8,30.26,NNE,19,0.0,0.0,70,0.00,,,0.00,VWS V14.00,2013-02-01 14:07:00,
2013-02-01 09:12:00,49.1,39.8,30.26,NNE,19,0.0,0.0,70,0.00,,,0.00,VWS V14.00,2013-02-01 14:12:00,
2013-02-01 09:17:00,49.1,39.8,30.26,NNE,19,0.0,0.0,70,0.00,,,0.00,VWS V14.00,2013-02-01 14:17:00,
2013-02-01 09:22:00,49.1,39.8,30.26,NNE,19,0.0,0.0,70,0.00,,,0.00,VWS V14.00,2013-02-01 14:22:00,
2013-02-01 09:27:00,49.1,39.8,30.26,NNE,19,0.0,0.0,70,0.00,,,0.00,VWS V14.00,2013-02-01 14:27:00,
2013-02-01 09:32:00,49.1,39.8,30.26,NNE,19,0.0,0.0,70,0.00,,,0.00,VWS V14.00,2013-02-01 14:32:00,
2013-02-01 09:37:00,49.1,39.8,30.26,NNE,19,0.0,0.0,70,0.00,,,0.00,VWS V14.00,2013-02-01 14:37:00,
2013-02-01 09:42:00,49.1,39.8,30.26,NNE,19,0.0,0.0,70,0.00,,,0.00,VWS V14.00,2013-02-01 14:42:00,
2013-02-01 09:47:00,49.1,39.8,30.26,NNE,19,0.0,0.0,70,0.00,,,0.00,VWS V14.00,2013-02-01 14:47:00,
2013-02-01 09:52:00,49.1,39.8,30.26,NNE,19,0.0,0.0,70,0.00,,,0.00,VWS V14.00,2013-02-01 14:52:00,
2013-02-01 09:57:00,49.1,39.8,30.26,NNE,19,0.0,0.0,70,0.00,,,0.00,VWS V14.00,2013-02-01 14:57:00,
2013-02-01 10:02:00,49.1,39.8,30.26,NNE,19,0.0,0.0,70,0.00,,,0.00,VWS V14.00,2013-02-01 15:02:00,
2013-02-01 10:07:00,49.1,39.8,30.26,NNE,19,0.0,0.0,70,0.00,,,0.00,VWS V14.00,2013-02-01 15:07:00,
2013-02-01 10:12:00,49.1,39.8,30.26,NNE,19,0.0,0.0,70,0.00,,,0.00,VWS V14.00,2013-02-01 15:12:00,
2013-02-01 10:17:00,49.1,39.8,30.26,NNE,19,0.0,0.0,70,0.00,,,0.00,VWS V14.00,2013-02-01 15:17:00,
2013-02-01 10:22:00,49.1,39.8,30.27,NNE,19,0.0,0.0,70,0.00,,,0.00,VWS V14.00,2013-02-01 15:22:00,
2013-02-01 10:27:00,58.0,41.9,30.27,NNE,26,9.0,15.0,55,0.00,,,0.00,VWS V14.00,2013-02-01 15:27:00,
2013-02-01 10:32:00,58.1,42.5,30.27,NE,49,12.0,14.0,56,0.00,,,0.00,VWS V14.00,2013-02-01 15:32:00,
2013-02-01 10:37:00,58.4,43.2,30.26,NE,38,6.0,14.0,57,0.00,,,0.00,VWS V14.00,2013-02-01 15:37:00,
2013-02-01 10:42:00,58.7,43.1,30.27,NNE,32,7.0,14.0,56,0.00,,,0.00,VWS V14.00,2013-02-01 15:42:00,
2013-02-01 10:47:00,59.2,44.0,30.27,North,355,7.0,13.0,57,0.00,,,0.00,VWS V14.00,2013-02-01 15:47:00,
2013-02-01 10:52:00,59.7,44.5,30.27,NNE,23,7.0,13.0,57,0.00,,,0.00,VWS V14.00,2013-02-01 15:52:00,
2013-02-01 10:57:00,60.0,44.3,30.27,NE,47,5.0,13.0,56,0.00,,,0.00,VWS V14.00,2013-02-01 15:57:00,
2013-02-01 11:02:00,60.4,43.7,30.27,NNW,340,9.0,13.0,54,0.00,,,0.00,VWS V14.00,2013-02-01 16:02:00,
2013-02-01 11:07:00,60.5,44.3,30.27,NE,48,6.0,13.0,55,0.00,,,0.00,VWS V14.00,2013-02-01 16:07:00,
2013-02-01 11:12:00,60.9,45.6,30.27,NE,34,8.0,13.0,57,0.00,,,0.00,VWS V14.00,2013-02-01 16:12:00,
2013-02-01 11:17:00,60.9,45.6,30.27,NE,34,8.0,13.0,57,0.00,,,0.00,VWS V14.00,2013-02-01 16:17:00,
2013-02-01 11:22:00,61.7,45.9,30.27,North,5,10.0,13.0,56,0.00,,,0.00,VWS V14.00,2013-02-01 16:22:00,
2013-02-01 11:27:00,62.0,45.2,30.27,NE,42,8.0,13.0,54,0.00,,,0.00,VWS V14.00,2013-02-01 16:27:00,
2013-02-01 11:32:00,62.1,45.8,30.27,North,9,9.0,12.0,55,0.00,,,0.00,VWS V14.00,2013-02-01 16:32:00,
2013-02-01 11:37:00,62.4,46.5,30.27,North,360,5.0,12.0,56,0.00,,,0.00,VWS V14.00,2013-02-01 16:37:00,
2013-02-01 11:42:00,62.8,45.9,30.27,NNE,15,7.0,13.0,54,0.00,,,0.00,VWS V14.00,2013-02-01 16:42:00,
2013-02-01 11:47:00,62.7,45.3,30.27,NNE,28,9.0,14.0,53,0.00,,,0.00,VWS V14.00,2013-02-01 16:47:00,
2013-02-01 11:52:00,63.0,46.1,30.26,NE,38,8.0,14.0,54,0.00,,,0.00,VWS V14.00,2013-02-01 16:52:00,
2013-02-01 11:57:00,63.2,45.3,30.26,NE,43,6.0,15.0,52,0.00,,,0.00,VWS V14.00,2013-02-01 16:57:00,
2013-02-01 12:02:00,63.6,45.7,30.26,ENE,72,4.0,11.0,52,0.00,,,0.00,VWS V14.00,2013-02-01 17:02:00,
2013-02-01 12:07:00,63.8,46.4,30.26,North,355,9.0,11.0,53,0.00,,,0.00,VWS V14.00,2013-02-01 17:07:00,
2013-02-01 12:12:00,64.1,46.1,30.26,NE,53,12.0,14.0,52,0.00,,,0.00,VWS V14.00,2013-02-01 17:12:00,
2013-02-01 12:17:00,64.3,45.8,30.25,NE,48,4.0,10.0,51,0.00,,,0.00,VWS V14.00,2013-02-01 17:17:00,
2013-02-01 12:22:00,64.3,45.3,30.25,NNE,24,6.0,15.0,50,0.00,,,0.00,VWS V14.00,2013-02-01 17:22:00,
2013-02-01 12:27:00,64.4,45.9,30.25,NNE,17,8.0,15.0,51,0.00,,,0.00,VWS V14.00,2013-02-01 17:27:00,
2013-02-01 12:32:00,64.9,44.8,30.24,North,349,8.0,11.0,48,0.00,,,0.00,VWS V14.00,2013-02-01 17:32:00,
2013-02-01 12:37:00,64.9,45.3,30.24,NNW,348,7.0,12.0,49,0.00,,,0.00,VWS V14.00,2013-02-01 17:37:00,
2013-02-01 12:42:00,65.3,46.2,30.24,NNE,20,8.0,12.0,50,0.00,,,0.00,VWS V14.00,2013-02-01 17:42:00,
2013-02-01 12:47:00,65.8,46.1,30.24,ENE,69,4.0,8.0,49,0.00,,,0.00,VWS V14.00,2013-02-01 17:47:00,
2013-02-01 12:52:00,66.0,45.2,30.24,NE,34,6.0,10.0,47,0.00,,,0.00,VWS V14.00,2013-02-01 17:52:00,
2013-02-01 12:57:00,66.2,46.0,30.24,NNE,28,7.0,13.0,48,0.00,,,0.00,VWS V14.00,2013-02-01 17:57:00,
2013-02-01 13:02:00,66.3,44.9,30.23,ENE,73,5.0,9.0,46,0.00,,,0.00,VWS V14.00,2013-02-01 18:02:00,
2013-02-01 13:07:00,66.4,43.8,30.23,NE,38,4.0,13.0,44,0.00,,,0.00,VWS V14.00,2013-02-01 18:07:00,
2013-02-01 13:12:00,66.5,44.5,30.22,NNE,22,9.0,13.0,45,0.00,,,0.00,VWS V14.00,2013-02-01 18:12:00,
2013-02-01 13:17:00,66.8,45.4,30.22,NNE,17,6.0,7.0,46,0.00,,,0.00,VWS V14.00,2013-02-01 18:17:00,
2013-02-01 13:22:00,67.2,44.0,30.22,NNE,16,7.0,8.0,43,0.00,,,0.00,VWS V14.00,2013-02-01 18:22:00,
2013-02-01 13:27:00,67.5,42.3,30.21,NE,49,6.0,12.0,40,0.00,,,0.00,VWS V14.00,2013-02-01 18:27:00,
2013-02-01 13:32:00,67.4,41.6,30.21,NE,34,6.0,12.0,39,0.00,,,0.00,VWS V14.00,2013-02-01 18:32:00,
2013-02-01 13:37:00,67.5,41.7,30.21,NNE,26,5.0,12.0,39,0.00,,,0.00,VWS V14.00,2013-02-01 18:37:00,
2013-02-01 13:42:00,67.6,42.4,30.21,NNE,12,7.0,13.0,40,0.00,,,0.00,VWS V14.00,2013-02-01 18:42:00,
2013-02-01 13:47:00,67.5,43.0,30.21,ENE,65,2.0,7.0,41,0.00,,,0.00,VWS V14.00,2013-02-01 18:47:00,
2013-02-01 13:52:00,67.7,42.5,30.21,NNE,31,4.0,13.0,40,0.00,,,0.00,VWS V14.00,2013-02-01 18:52:00,
2013-02-01 13:57:00,68.0,42.1,30.20,ENE,73,5.0,13.0,39,0.00,,,0.00,VWS V14.00,2013-02-01 18:57:00,
2013-02-01 14:02:00,68.2,43.0,30.20,NE,44,11.0,11.0,40,0.00,,,0.00,VWS V14.00,2013-02-01 19:02:00,
2013-02-01 14:07:00,68.3,41.0,30.20,NNE,13,4.0,14.0,37,0.00,,,0.00,VWS V14.00,2013-02-01 19:07:00,
2013-02-01 14:12:00,68.3,42.4,30.20,NE,36,7.0,14.0,39,0.00,,,0.00,VWS V14.00,2013-02-01 19:12:00,
2013-02-01 14:17:00,68.4,40.4,30.20,NE,34,3.0,10.0,36,0.00,,,0.00,VWS V14.00,2013-02-01 19:17:00,
2013-02-01 14:22:00,68.6,41.3,30.20,ENE,75,3.0,10.0,37,0.00,,,0.00,VWS V14.00,2013-02-01 19:22:00,
2013-02-01 14:27:00,69.0,44.3,30.20,North,355,8.0,10.0,41,0.00,,,0.00,VWS V14.00,2013-02-01 19:27:00,
2013-02-01 14:32:00,69.2,41.8,30.20,NE,40,7.0,13.0,37,0.00,,,0.00,VWS V14.00,2013-02-01 19:32:00,
2013-02-01 14:37:00,69.0,41.0,30.19,NE,45,5.0,13.0,36,0.00,,,0.00,VWS V14.00,2013-02-01 19:37:00,
2013-02-01 14:42:00,69.1,41.0,30.19,NE,44,8.0,13.0,36,0.00,,,0.00,VWS V14.00,2013-02-01 19:42:00,
2013-02-01 14:47:00,69.4,40.6,30.19,NE,47,6.0,10.0,35,0.00,,,0.00,VWS V14.00,2013-02-01 19:47:00,
2013-02-01 14:52:00,69.4,39.8,30.19,East,101,4.0,10.0,34,0.00,,,0.00,VWS V14.00,2013-02-01 19:52:00,
2013-02-01 14:57:00,69.3,39.8,30.18,NNE,30,8.0,12.0,34,0.00,,,0.00,VWS V14.00,2013-02-01 19:57:00,
2013-02-01 15:02:00,69.4,40.6,30.18,NE,46,5.0,12.0,35,0.00,,,0.00,VWS V14.00,2013-02-01 20:02:00,
2013-02-01 15:07:00,69.4,40.6,30.18,ENE,59,6.0,15.0,35,0.00,,,0.00,VWS V14.00,2013-02-01 20:07:00,
2013-02-01 15:12:00,69.4,39.8,30.18,NE,46,4.0,15.0,34,0.00,,,0.00,VWS V14.00,2013-02-01 20:12:00,
2013-02-01 15:17:00,69.5,39.2,30.18,ENE,69,5.0,11.0,33,0.00,,,0.00,VWS V14.00,2013-02-01 20:17:00,
2013-02-01 15:22:00,69.6,39.2,30.18,NE,34,7.0,11.0,33,0.00,,,0.00,VWS V14.00,2013-02-01 20:22:00,
2013-02-01 15:27:00,69.7,40.1,30.18,NE,36,5.0,11.0,34,0.00,,,0.00,VWS V14.00,2013-02-01 20:27:00,
2013-02-01 15:32:00,69.9,41.0,30.18,NNE,24,9.0,12.0,35,0.00,,,0.00,VWS V14.00,2013-02-01 20:32:00,
2013-02-01 15:37:00,70.0,40.4,30.18,NNE,33,8.0,16.0,34,0.00,,,0.00,VWS V14.00,2013-02-01 20:37:00,
2013-02-01 15:42:00,69.9,39.5,30.18,North,360,10.0,16.0,33,0.00,,,0.00,VWS V14.00,2013-02-01 20:42:00,
2013-02-01 15:47:00,69.7,40.1,30.18,NNE,27,8.0,10.0,34,0.00,,,0.00,VWS V14.00,2013-02-01 20:47:00,
2013-02-01 15:52:00,69.9,41.8,30.18,NNE,30,10.0,10.0,36,0.00,,,0.00,VWS V14.00,2013-02-01 20:52:00,
2013-02-01 15:57:00,70.0,38.8,30.18,SSE,148,8.0,11.0,32,0.00,,,0.00,VWS V14.00,2013-02-01 20:57:00,
2013-02-01 16:02:00,70.1,41.2,30.19,NE,51,1.0,7.0,35,0.00,,,0.00,VWS V14.00,2013-02-01 21:02:00,
2013-02-01 16:07:00,70.1,41.2,30.18,ENE,66,6.0,10.0,35,0.00,,,0.00,VWS V14.00,2013-02-01 21:07:00,
2013-02-01 16:12:00,70.0,41.8,30.19,North,360,8.0,10.0,36,0.00,,,0.00,VWS V14.00,2013-02-01 21:12:00,
2013-02-01 16:17:00,69.9,40.3,30.19,ENE,59,4.0,11.0,34,0.00,,,0.00,VWS V14.00,2013-02-01 21:17:00,
2013-02-01 16:22:00,69.8,40.9,30.18,North,355,7.0,11.0,35,0.00,,,0.00,VWS V14.00,2013-02-01 21:22:00,
2013-02-01 16:27:00,69.9,41.8,30.18,NNE,14,5.0,11.0,36,0.00,,,0.00,VWS V14.00,2013-02-01 21:27:00,
2013-02-01 16:32:00,69.8,40.9,30.19,NE,39,3.0,9.0,35,0.00,,,0.00,VWS V14.00,2013-02-01 21:32:00,
2013-02-01 16:37:00,69.7,40.8,30.19,NE,42,6.0,11.0,35,0.00,,,0.00,VWS V14.00,2013-02-01 21:37:00,
2013-02-01 16:42:00,69.6,40.8,30.18,NE,38,4.0,11.0,35,0.00,,,0.00,VWS V14.00,2013-02-01 21:42:00,
2013-02-01 16:47:00,69.5,41.4,30.19,NE,44,3.0,8.0,36,0.00,,,0.00,VWS V14.00,2013-02-01 21:47:00,
2013-02-01 16:52:00,69.5,41.4,30.19,ENE,69,3.0,9.0,36,0.00,,,0.00,VWS V14.00,2013-02-01 21:52:00,
2013-02-01 16:57:00,69.5,41.4,30.19,ENE,67,4.0,9.0,36,0.00,,,0.00,VWS V14.00,2013-02-01 21:57:00,
2013-02-01 17:02:00,69.4,42.7,30.19,NNE,27,6.0,7.0,38,0.00,,,0.00,VWS V14.00,2013-02-01 22:02:00,
2013-02-01 17:07:00,69.2,41.1,30.19,NE,43,7.0,12.0,36,0.00,,,0.00,VWS V14.00,2013-02-01 22:07:00,
2013-02-01 17:12:00,69.0,42.4,30.19,NNE,22,6.0,13.0,38,0.00,,,0.00,VWS V14.00,2013-02-01 22:12:00,
2013-02-01 17:17:00,68.8,42.9,30.19,NE,35,0.0,6.0,39,0.00,,,0.00,VWS V14.00,2013-02-01 22:17:00,
2013-02-01 17:22:00,68.8,41.5,30.19,NNE,27,8.0,8.0,37,0.00,,,0.00,VWS V14.00,2013-02-01 22:22:00,
2013-02-01 17:27:00,68.6,42.0,30.19,NE,51,4.0,10.0,38,0.00,,,0.00,VWS V14.00,2013-02-01 22:27:00,
2013-02-01 17:32:00,68.4,41.8,30.19,NE,50,3.0,8.0,38,0.00,,,0.00,VWS V14.00,2013-02-01 22:32:00,
2013-02-01 17:37:00,68.4,41.8,30.19,NE,50,3.0,8.0,38,0.00,,,0.00,VWS V14.00,2013-02-01 22:37:00,
2013-02-01 17:42:00,67.9,41.4,30.20,NE,39,4.0,8.0,38,0.00,,,0.00,VWS V14.00,2013-02-01 22:42:00,
2013-02-01 17:47:00,67.5,41.0,30.20,NE,52,5.0,8.0,38,0.00,,,0.00,VWS V14.00,2013-02-01 22:47:00,
2013-02-01 17:52:00,67.2,41.4,30.19,NNE,30,5.0,8.0,39,0.00,,,0.00,VWS V14.00,2013-02-01 22:52:00,
2013-02-01 17:57:00,66.8,41.1,30.19,NNE,33,3.0,8.0,39,0.00,,,0.00,VWS V14.00,2013-02-01 22:57:00,
2013-02-01 18:02:00,66.4,42.0,30.19,NE,37,3.0,3.0,41,0.00,,,0.00,VWS V14.00,2013-02-01 23:02:00,
2013-02-01 18:07:00,66.1,41.7,30.19,NE,38,2.0,4.0,41,0.00,,,0.00,VWS V14.00,2013-02-01 23:07:00,
2013-02-01 18:12:00,65.7,42.0,30.20,NE,38,2.0,4.0,42,0.00,,,0.00,VWS V14.00,2013-02-01 23:12:00,
2013-02-01 18:17:00,65.3,42.2,30.20,NE,38,2.0,4.0,43,0.00,,,0.00,VWS V14.00,2013-02-01 23:17:00,
2013-02-01 18:22:00,65.0,42.6,30.20,NE,38,1.0,4.0,44,0.00,,,0.00,VWS V14.00,2013-02-01 23:22:00,
2013-02-01 18:27:00,64.5,42.1,30.20,NE,38,1.0,4.0,44,0.00,,,0.00,VWS V14.00,2013-02-01 23:27:00,
2013-02-01 18:32:00,64.1,43.5,30.20,NE,38,0.0,1.0,47,0.00,,,0.00,VWS V14.00,2013-02-01 23:32:00,
2013-02-01 18:37:00,63.8,42.6,30.19,NE,42,1.0,5.0,46,0.00,,,0.00,VWS V14.00,2013-02-01 23:37:00,
2013-02-01 18:42:00,63.5,42.4,30.20,NE,42,0.0,5.0,46,0.00,,,0.00,VWS V14.00,2013-02-01 23:42:00,
2013-02-01 18:47:00,63.2,42.1,30.20,NE,42,0.0,4.0,46,0.00,,,0.00,VWS V14.00,2013-02-01 23:47:00,
2013-02-01 18:52:00,63.0,41.3,30.20,NE,46,1.0,4.0,45,0.00,,,0.00,VWS V14.00,2013-02-01 23:52:00,
2013-02-01 18:57:00,62.8,41.2,30.20,NE,46,3.0,5.0,45,0.00,,,0.00,VWS V14.00,2013-02-01 23:57:00,
2013-02-01 19:02:00,62.6,40.4,30.20,NE,46,0.0,4.0,44,0.00,,,0.00,VWS V14.00,2013-02-02 00:02:00,
2013-02-01 19:07:00,62.5,40.9,30.20,NE,46,1.0,5.0,45,0.00,,,0.00,VWS V14.00,2013-02-02 00:07:00,
2013-02-01 19:12:00,62.2,40.6,30.20,NE,46,2.0,5.0,45,0.00,,,0.00,VWS V14.00,2013-02-02 00:12:00,
2013-02-01 19:17:00,62.0,39.3,30.20,NE,41,1.0,5.0,43,0.00,,,0.00,VWS V14.00,2013-02-02 00:17:00,
2013-02-01 19:22:00,61.9,39.8,30.20,NE,42,2.0,6.0,44,0.00,,,0.00,VWS V14.00,2013-02-02 00:22:00,
2013-02-01 19:27:00,61.7,39.6,30.21,NE,42,2.0,6.0,44,0.00,,,0.00,VWS V14.00,2013-02-02 00:27:00,
2013-02-01 19:32:00,61.5,39.4,30.21,NE,40,4.0,5.0,44,0.00,,,0.00,VWS V14.00,2013-02-02 00:32:00,
2013-02-01 19:37:00,61.4,38.7,30.21,ENE,67,2.0,5.0,43,0.00,,,0.00,VWS V14.00,2013-02-02 00:37:00,
2013-02-01 19:42:00,61.2,38.5,30.21,ENE,67,3.0,5.0,43,0.00,,,0.00,VWS V14.00,2013-02-02 00:42:00,
2013-02-01 19:47:00,61.0,39.0,30.21,ENE,67,0.0,1.0,44,0.00,,,0.00,VWS V14.00,2013-02-02 00:47:00,
2013-02-01 19:52:00,60.7,39.3,30.21,ENE,67,1.0,3.0,45,0.00,,,0.00,VWS V14.00,2013-02-02 00:52:00,
2013-02-01 19:57:00,60.3,39.5,30.21,ENE,67,2.0,3.0,46,0.00,,,0.00,VWS V14.00,2013-02-02 00:57:00,
2013-02-01 20:02:00,59.9,39.1,30.21,ENE,67,1.0,3.0,46,0.00,,,0.00,VWS V14.00,2013-02-02 01:02:00,
2013-02-01 20:07:00,59.6,38.8,30.21,ENE,67,0.0,3.0,46,0.00,,,0.00,VWS V14.00,2013-02-02 01:07:00,
2013-02-01 20:12:00,59.4,39.7,30.21,ENE,67,0.0,3.0,48,0.00,,,0.00,VWS V14.00,2013-02-02 01:12:00,
2013-02-01 20:17:00,59.2,38.5,30.21,ENE,67,0.0,3.0,46,0.00,,,0.00,VWS V14.00,2013-02-02 01:17:00,
2013-02-01 20:22:00,59.2,37.9,30.21,ENE,59,1.0,5.0,45,0.00,,,0.00,VWS V14.00,2013-02-02 01:22:00,
2013-02-01 20:27:00,59.1,37.8,30.21,ENE,59,1.0,5.0,45,0.00,,,0.00,VWS V14.00,2013-02-02 01:27:00,
2013-02-01 20:32:00,58.9,37.6,30.21,ENE,69,2.0,3.0,45,0.00,,,0.00,VWS V14.00,2013-02-02 01:32:00,
2013-02-01 20:37:00,58.9,38.2,30.22,ENE,67,0.0,4.0,46,0.00,,,0.00,VWS V14.00,2013-02-02 01:37:00,
2013-02-01 20:42:00,58.7,38.5,30.22,ENE,67,0.0,4.0,47,0.00,,,0.00,VWS V14.00,2013-02-02 01:42:00,
2013-02-01 20:47:00,58.5,38.4,30.21,ENE,67,0.0,1.0,47,0.00,,,0.00,VWS V14.00,2013-02-02 01:47:00,
2013-02-01 20:52:00,58.3,38.2,30.22,ENE,67,0.0,3.0,47,0.00,,,0.00,VWS V14.00,2013-02-02 01:52:00,
2013-02-01 20:57:00,58.2,37.0,30.22,ENE,66,1.0,4.0,45,0.00,,,0.00,VWS V14.00,2013-02-02 01:57:00,
2013-02-01 21:02:00,58.0,37.4,30.21,ENE,61,3.0,5.0,46,0.00,,,0.00,VWS V14.00,2013-02-02 02:02:00,
2013-02-01 21:07:00,57.9,36.7,30.22,ENE,61,0.0,5.0,45,0.00,,,0.00,VWS V14.00,2013-02-02 02:07:00,
2013-02-01 21:12:00,57.8,37.2,30.22,ENE,61,3.0,5.0,46,0.00,,,0.00,VWS V14.00,2013-02-02 02:12:00,
2013-02-01 21:17:00,57.7,35.4,30.22,ENE,61,2.0,5.0,43,0.00,,,0.00,VWS V14.00,2013-02-02 02:17:00,
2013-02-01 21:22:00,57.6,36.4,30.22,ENE,61,0.0,5.0,45,0.00,,,0.00,VWS V14.00,2013-02-02 02:22:00,
2013-02-01 21:27:00,57.4,36.8,30.22,ENE,61,1.0,5.0,46,0.00,,,0.00,VWS V14.00,2013-02-02 02:27:00,
2013-02-01 21:32:00,57.1,36.0,30.22,ENE,61,2.0,3.0,45,0.00,,,0.00,VWS V14.00,2013-02-02 02:32:00,
2013-02-01 21:37:00,56.9,36.3,30.22,ENE,61,0.0,4.0,46,0.00,,,0.00,VWS V14.00,2013-02-02 02:37:00,
2013-02-01 21:42:00,56.8,35.7,30.23,ENE,61,3.0,4.0,45,0.00,,,0.00,VWS V14.00,2013-02-02 02:42:00,
2013-02-01 21:47:00,56.7,36.7,30.23,ENE,61,0.0,2.0,47,0.00,,,0.00,VWS V14.00,2013-02-02 02:47:00,
2013-02-01 21:52:00,56.6,36.6,30.22,ENE,61,3.0,5.0,47,0.00,,,0.00,VWS V14.00,2013-02-02 02:52:00,
2013-02-01 21:57:00,56.5,36.0,30.22,ENE,57,2.0,5.0,46,0.00,,,0.00,VWS V14.00,2013-02-02 02:57:00,
2013-02-01 22:02:00,56.4,36.4,30.22,ENE,62,0.0,2.0,47,0.00,,,0.00,VWS V14.00,2013-02-02 03:02:00,
2013-02-01 22:07:00,56.3,36.9,30.22,ENE,62,0.0,2.0,48,0.00,,,0.00,VWS V14.00,2013-02-02 03:07:00,
2013-02-01 22:12:00,56.0,36.6,30.22,ENE,62,0.0,2.0,48,0.00,,,0.00,VWS V14.00,2013-02-02 03:12:00,
2013-02-01 22:17:00,55.8,36.4,30.22,ENE,62,1.0,2.0,48,0.00,,,0.00,VWS V14.00,2013-02-02 03:17:00,
2013-02-01 22:22:00,55.6,36.2,30.22,ENE,62,0.0,3.0,48,0.00,,,0.00,VWS V14.00,2013-02-02 03:22:00,
2013-02-01 22:27:00,55.5,37.2,30.23,ENE,62,0.0,3.0,50,0.00,,,0.00,VWS V14.00,2013-02-02 03:27:00,
2013-02-01 22:32:00,55.3,36.0,30.23,ENE,62,0.0,2.0,48,0.00,,,0.00,VWS V14.00,2013-02-02 03:32:00,
2013-02-01 22:37:00,54.9,37.1,30.23,ENE,62,0.0,3.0,51,0.00,,,0.00,VWS V14.00,2013-02-02 03:37:00,
2013-02-01 22:42:00,54.5,36.3,30.23,ENE,62,0.0,3.0,50,0.00,,,0.00,VWS V14.00,2013-02-02 03:42:00,
2013-02-01 22:47:00,54.4,36.2,30.23,ENE,62,0.0,4.0,50,0.00,,,0.00,VWS V14.00,2013-02-02 03:47:00,
2013-02-01 22:52:00,54.5,36.3,30.23,ENE,62,0.0,4.0,50,0.00,,,0.00,VWS V14.00,2013-02-02 03:52:00,
2013-02-01 22:57:00,54.5,36.8,30.23,ENE,62,0.0,4.0,51,0.00,,,0.00,VWS V14.00,2013-02-02 03:57:00,
2013-02-01 23:02:00,54.3,36.6,30.23,ENE,62,0.0,0.0,51,0.00,,,0.00,VWS V14.00,2013-02-02 04:02:00,
2013-02-01 23:07:00,54.2,37.5,30.23,ENE,62,0.0,1.0,53,0.00,,,0.00,VWS V14.00,2013-02-02 04:07:00,
2013-02-01 23:12:00,54.0,38.7,30.23,ENE,62,0.0,1.0,56,0.00,,,0.00,VWS V14.00,2013-02-02 04:12:00,
2013-02-01 23:17:00,53.6,37.4,30.23,ENE,62,0.0,1.0,54,0.00,,,0.00,VWS V14.00,2013-02-02 04:17:00,
2013-02-01 23:22:00,53.4,37.7,30.23,ENE,62,0.0,1.0,55,0.00,,,0.00,VWS V14.00,2013-02-02 04:22:00,
2013-02-01 23:27:00,53.1,38.7,30.23,ENE,62,0.0,1.0,58,0.00,,,0.00,VWS V14.00,2013-02-02 04:27:00,
2013-02-01 23:32:00,52.7,38.8,30.23,ENE,62,0.0,0.0,59,0.00,,,0.00,VWS V14.00,2013-02-02 04:32:00,
2013-02-01 23:37:00,52.3,39.3,30.24,ENE,62,0.0,1.0,61,0.00,,,0.00,VWS V14.00,2013-02-02 04:37:00,
2013-02-01 23:42:00,52.0,39.0,30.23,ENE,62,0.0,2.0,61,0.00,,,0.00,VWS V14.00,2013-02-02 04:42:00,
2013-02-01 23:47:00,51.9,38.5,30.23,ENE,62,0.0,0.0,60,0.00,,,0.00,VWS V14.00,2013-02-02 04:47:00,
2013-02-01 23:52:00,52.0,39.0,30.23,ENE,62,0.0,3.0,61,0.00,,,0.00,VWS V14.00,2013-02-02 04:52:00,
2013-02-01 23:57:00,52.0,39.4,30.23,ENE,62,0.0,3.0,62,0.00,,,0.00,VWS V14.00,2013-02-02 04:57:00,